Time,TemperatureF,DewpointF,PressureIn,WindDirection,WindDirectionDegrees,WindSpeedMPH,WindSpeedGustMPH,Humidity,HourlyPrecipIn,Conditions,Clouds,dailyrainin,SoftwareType,DateUTC
2013-03-16 00:00:00,25.2,18.9,29.79,NNE,22,4.9,4.9,77,0.00,,,0.00,WUHU21623XXSP,2013-03-16 04:00:00,
2013-03-16 00:02:00,25.0,18.4,29.79,NNE,22,2.5,4.9,76,0.00,,,0.00,WUHU21623XXSP,2013-03-16 04:02:00,
2013-03-16 00:04:00,25.0,18.8,29.79,NNE,22,5.4,5.4,77,0.00,,,0.00,WUHU21623XXSP,2013-03-16 04:04:00,
2013-03-16 00:07:00,24.6,18.1,29.79,NNE,22,3.1,5.4,76,0.00,,,0.00,WUHU21623XXSP,2013-03-16 04:07:00,
2013-03-16 00:09:00,24.8,18.6,29.79,North,0,5.4,5.4,77,0.00,,,0.00,WUHU21623XXSP,2013-03-16 04:09:00,
2013-03-16 00:11:00,25.0,18.8,29.80,North,0,0.7,5.4,77,0.00,,,0.00,WUHU21623XXSP,2013-03-16 04:11:00,
2013-03-16 00:13:00,24.8,18.3,29.80,North,0,6.5,6.5,76,0.00,,,0.00,WUHU21623XXSP,2013-03-16 04:13:00,
2013-03-16 00:15:00,25.0,18.1,29.80,North,0,4.0,6.5,75,0.00,,,0.00,WUHU21623XXSP,2013-03-16 04:15:00,
2013-03-16 00:17:00,25.0,18.1,29.80,North,0,4.7,6.5,75,0.00,,,0.00,WUHU21623XXSP,2013-03-16 04:17:00,
2013-03-16 00:19:00,25.2,18.0,29.79,North,0,4.7,6.5,74,0.00,,,0.00,WUHU21623XXSP,2013-03-16 04:19:00,
2013-03-16 00:21:00,25.2,18.0,29.80,NNE,22,4.3,6.5,74,0.00,,,0.00,WUHU21623XXSP,2013-03-16 04:21:00,
2013-03-16 00:24:00,25.0,17.8,29.80,NNE,22,2.7,4.7,74,0.00,,,0.00,WUHU21623XXSP,2013-03-16 04:24:00,
2013-03-16 00:26:00,25.0,17.5,29.79,North,0,4.0,4.7,73,0.00,,,0.00,WUHU21623XXSP,2013-03-16 04:26:00,
2013-03-16 00:28:00,25.0,17.1,29.79,North,0,2.2,4.7,72,0.00,,,0.00,WUHU21623XXSP,2013-03-16 04:28:00,
2013-03-16 00:30:00,25.0,16.8,29.79,NNW,337,7.4,7.4,71,0.00,,,0.00,WUHU21623XXSP,2013-03-16 04:30:00,
2013-03-16 00:32:00,25.0,16.2,29.79,North,0,5.8,7.4,69,0.00,,,0.00,WUHU21623XXSP,2013-03-16 04:32:00,
2013-03-16 00:34:00,25.0,16.2,29.80,NNE,22,4.7,7.4,69,0.00,,,0.00,WUHU21623XXSP,2013-03-16 04:34:00,
2013-03-16 00:36:00,25.0,15.8,29.79,North,0,4.5,7.4,68,0.00,,,0.00,WUHU21623XXSP,2013-03-16 04:36:00,
2013-03-16 00:38:00,24.6,15.1,29.80,North,0,7.8,7.8,67,0.00,,,0.00,WUHU21623XXSP,2013-03-16 04:38:00,
2013-03-16 00:41:00,24.6,15.1,29.80,NNW,337,8.5,8.5,67,0.00,,,0.00,WUHU21623XXSP,2013-03-16 04:41:00,
2013-03-16 00:43:00,24.6,14.8,29.80,North,0,9.2,9.2,66,0.00,,,0.00,WUHU21623XXSP,2013-03-16 04:43:00,
2013-03-16 00:45:00,24.6,14.1,29.80,North,0,9.8,9.8,64,0.00,,,0.00,WUHU21623XXSP,2013-03-16 04:45:00,
2013-03-16 00:47:00,24.6,14.1,29.80,NNW,337,6.7,9.8,64,0.00,,,0.00,WUHU21623XXSP,2013-03-16 04:47:00,
2013-03-16 00:49:00,24.4,13.9,29.80,NNW,337,8.9,9.8,64,0.00,,,0.00,WUHU21623XXSP,2013-03-16 04:49:00,
2013-03-16 00:51:00,24.4,13.9,29.80,NNW,337,11.0,11.0,63,0.00,,,0.00,WUHU21623XXSP,2013-03-16 04:51:00,
2013-03-16 00:55:00,24.4,13.6,29.80,NNW,337,11.0,11.0,63,0.00,,,0.00,WUHU21623XXSP,2013-03-16 04:55:00,
2013-03-16 00:57:00,24.4,13.6,29.80,NNW,337,4.9,11.0,63,0.00,,,0.00,WUHU21623XXSP,2013-03-16 04:57:00,
2013-03-16 00:58:00,24.3,13.4,29.80,North,0,6.5,11.0,63,0.00,,,0.00,WUHU21623XXSP,2013-03-16 04:58:00,
2013-03-16 01:00:00,24.1,13.2,29.80,NNW,337,7.2,11.0,63,0.00,,,0.00,WUHU21623XXSP,2013-03-16 05:00:00,
2013-03-16 01:02:00,24.1,13.6,29.80,NNW,337,2.5,11.0,64,0.00,,,0.00,WUHU21623XXSP,2013-03-16 05:02:00,
2013-03-16 01:04:00,24.1,13.6,29.80,NNW,337,4.5,11.0,64,0.00,,,0.00,WUHU21623XXSP,2013-03-16 05:04:00,
2013-03-16 01:06:00,23.9,13.4,29.80,North,0,4.7,7.2,64,0.00,,,0.00,WUHU21623XXSP,2013-03-16 05:06:00,
2013-03-16 01:09:00,23.7,13.2,29.80,North,0,4.9,7.2,64,0.00,,,0.00,WUHU21623XXSP,2013-03-16 05:09:00,
2013-03-16 01:11:00,23.7,13.2,29.80,NNW,337,11.0,11.0,64,0.00,,,0.00,WUHU21623XXSP,2013-03-16 05:11:00,
2013-03-16 01:13:00,23.7,13.2,29.81,NNW,337,5.1,11.0,64,0.00,,,0.00,WUHU21623XXSP,2013-03-16 05:13:00,
2013-03-16 01:15:00,23.7,13.2,29.81,North,0,6.5,11.0,64,0.00,,,0.00,WUHU21623XXSP,2013-03-16 05:15:00,
2013-03-16 01:17:00,23.5,13.1,29.81,North,0,6.5,11.0,64,0.00,,,0.00,WUHU21623XXSP,2013-03-16 05:17:00,
2013-03-16 01:19:00,23.5,13.4,29.81,North,0,6.5,11.0,65,0.00,,,0.00,WUHU21623XXSP,2013-03-16 05:19:00,
2013-03-16 01:21:00,23.5,13.4,29.81,NNW,337,7.2,7.2,65,0.00,,,0.00,WUHU21623XXSP,2013-03-16 05:21:00,
2013-03-16 01:24:00,23.5,13.4,29.81,North,0,6.7,7.2,65,0.00,,,0.00,WUHU21623XXSP,2013-03-16 05:24:00,
2013-03-16 01:26:00,23.5,13.4,29.81,North,0,2.5,7.2,65,0.00,,,0.00,WUHU21623XXSP,2013-03-16 05:26:00,
2013-03-16 01:28:00,23.4,13.3,29.81,North,0,6.5,7.2,65,0.00,,,0.00,WUHU21623XXSP,2013-03-16 05:28:00,
2013-03-16 01:30:00,23.2,13.1,29.82,North,0,6.5,7.2,65,0.00,,,0.00,WUHU21623XXSP,2013-03-16 05:30:00,
2013-03-16 01:32:00,23.0,12.9,29.82,North,0,5.4,6.7,65,0.00,,,0.00,WUHU21623XXSP,2013-03-16 05:32:00,
2013-03-16 01:34:00,22.8,12.7,29.81,North,0,5.4,6.5,65,0.00,,,0.00,WUHU21623XXSP,2013-03-16 05:34:00,
2013-03-16 01:36:00,22.6,12.6,29.81,North,0,4.9,6.5,65,0.00,,,0.00,WUHU21623XXSP,2013-03-16 05:36:00,
2013-03-16 01:38:00,22.5,12.8,29.82,North,0,4.3,6.5,66,0.00,,,0.00,WUHU21623XXSP,2013-03-16 05:38:00,
2013-03-16 01:41:00,22.5,12.8,29.81,North,0,6.5,6.5,66,0.00,,,0.00,WUHU21623XXSP,2013-03-16 05:41:00,
2013-03-16 01:43:00,22.3,12.6,29.82,NNE,22,7.4,7.4,66,0.00,,,0.00,WUHU21623XXSP,2013-03-16 05:43:00,
2013-03-16 01:45:00,22.3,12.6,29.82,NNE,22,4.5,7.4,66,0.00,,,0.00,WUHU21623XXSP,2013-03-16 05:45:00,
2013-03-16 01:47:00,22.1,12.4,29.82,North,0,2.0,7.4,66,0.00,,,0.00,WUHU21623XXSP,2013-03-16 05:47:00,
2013-03-16 01:49:00,22.1,12.4,29.82,North,0,1.1,7.4,66,0.00,,,0.00,WUHU21623XXSP,2013-03-16 05:49:00,
2013-03-16 01:51:00,21.9,12.6,29.82,North,0,1.3,7.4,67,0.00,,,0.00,WUHU21623XXSP,2013-03-16 05:51:00,
2013-03-16 01:55:00,21.9,12.6,29.82,North,0,1.3,4.5,67,0.00,,,0.00,WUHU21623XXSP,2013-03-16 05:55:00,
2013-03-16 01:57:00,21.9,12.6,29.82,NNE,22,6.7,6.7,67,0.00,,,0.00,WUHU21623XXSP,2013-03-16 05:57:00,
2013-03-16 01:58:00,21.7,12.8,29.81,NNW,337,6.9,6.9,68,0.00,,,0.00,WUHU21623XXSP,2013-03-16 05:58:00,
2013-03-16 02:00:00,21.7,12.8,29.82,NNE,22,6.5,6.9,68,0.00,,,0.00,WUHU21623XXSP,2013-03-16 06:00:00,
2013-03-16 02:02:00,21.7,12.8,29.82,NNE,22,6.7,6.9,68,0.00,,,0.00,WUHU21623XXSP,2013-03-16 06:02:00,
2013-03-16 02:04:00,21.7,12.8,29.82,NNE,22,3.1,6.9,68,0.00,,,0.00,WUHU21623XXSP,2013-03-16 06:04:00,
2013-03-16 02:06:00,21.7,12.8,29.82,NNE,22,6.3,6.9,68,0.00,,,0.00,WUHU21623XXSP,2013-03-16 06:06:00,
2013-03-16 02:08:00,21.7,12.8,29.82,North,0,4.0,6.7,68,0.00,,,0.00,WUHU21623XXSP,2013-03-16 06:08:00,
2013-03-16 02:11:00,21.6,12.6,29.82,North,0,4.5,6.7,68,0.00,,,0.00,WUHU21623XXSP,2013-03-16 06:11:00,
2013-03-16 02:13:00,21.6,12.6,29.82,NNE,22,4.5,6.3,68,0.00,,,0.00,WUHU21623XXSP,2013-03-16 06:13:00,
2013-03-16 02:15:00,21.4,12.4,29.82,NNE,22,4.3,6.3,68,0.00,,,0.00,WUHU21623XXSP,2013-03-16 06:15:00,
2013-03-16 02:17:00,21.4,12.7,29.82,NNE,22,4.3,4.5,69,0.00,,,0.00,WUHU21623XXSP,2013-03-16 06:17:00,
2013-03-16 02:19:00,21.4,12.7,29.82,NNE,22,5.8,5.8,69,0.00,,,0.00,WUHU21623XXSP,2013-03-16 06:19:00,
2013-03-16 02:21:00,21.0,12.7,29.82,NE,45,6.0,6.0,70,0.00,,,0.00,WUHU21623XXSP,2013-03-16 06:21:00,
2013-03-16 02:23:00,21.0,12.4,29.82,NNE,22,7.4,7.4,69,0.00,,,0.00,WUHU21623XXSP,2013-03-16 06:23:00,
2013-03-16 02:26:00,21.0,12.7,29.81,NNE,22,7.4,7.4,70,0.00,,,0.00,WUHU21623XXSP,2013-03-16 06:26:00,
2013-03-16 02:28:00,21.0,12.4,29.81,North,0,4.5,7.4,69,0.00,,,0.00,WUHU21623XXSP,2013-03-16 06:28:00,
2013-03-16 02:30:00,21.0,12.7,29.81,NNW,337,3.4,7.4,70,0.00,,,0.00,WUHU21623XXSP,2013-03-16 06:30:00,
2013-03-16 02:32:00,20.8,12.2,29.81,NNE,22,6.9,7.4,69,0.00,,,0.00,WUHU21623XXSP,2013-03-16 06:32:00,
2013-03-16 02:34:00,20.8,12.2,29.81,North,0,7.8,7.8,69,0.00,,,0.00,WUHU21623XXSP,2013-03-16 06:34:00,
2013-03-16 02:36:00,20.8,12.2,29.81,North,0,7.4,7.8,69,0.00,,,0.00,WUHU21623XXSP,2013-03-16 06:36:00,
2013-03-16 02:38:00,20.8,12.2,29.81,NNE,22,4.9,7.8,69,0.00,,,0.00,WUHU21623XXSP,2013-03-16 06:38:00,
2013-03-16 02:41:00,20.5,11.9,29.82,North,0,4.7,7.8,69,0.00,,,0.00,WUHU21623XXSP,2013-03-16 06:41:00,
2013-03-16 02:43:00,20.3,11.7,29.81,North,0,3.6,7.8,69,0.00,,,0.00,WUHU21623XXSP,2013-03-16 06:43:00,
2013-03-16 02:45:00,20.1,11.5,29.82,North,0,7.8,7.8,69,0.00,,,0.00,WUHU21623XXSP,2013-03-16 06:45:00,
2013-03-16 02:47:00,20.1,11.5,29.82,North,0,2.2,7.8,69,0.00,,,0.00,WUHU21623XXSP,2013-03-16 06:47:00,
2013-03-16 02:49:00,20.1,11.5,29.81,North,0,2.5,7.8,69,0.00,,,0.00,WUHU21623XXSP,2013-03-16 06:49:00,
2013-03-16 02:51:00,19.9,11.3,29.81,NNE,22,7.2,7.8,69,0.00,,,0.00,WUHU21623XXSP,2013-03-16 06:51:00,
2013-03-16 02:55:00,19.9,11.3,29.81,NNE,22,7.2,7.8,69,0.00,,,0.00,WUHU21623XXSP,2013-03-16 06:55:00,
2013-03-16 02:57:00,19.9,11.3,29.81,North,0,2.9,7.2,69,0.00,,,0.00,WUHU21623XXSP,2013-03-16 06:57:00,
2013-03-16 02:58:00,19.6,11.0,29.81,North,0,2.5,7.2,69,0.00,,,0.00,WUHU21623XXSP,2013-03-16 06:58:00,
2013-03-16 03:00:00,19.6,11.0,29.82,North,0,2.5,7.2,69,0.00,,,0.00,WUHU21623XXSP,2013-03-16 07:00:00,
2013-03-16 03:02:00,19.2,10.6,29.82,North,0,0.0,7.2,69,0.00,,,0.00,WUHU21623XXSP,2013-03-16 07:02:00,
2013-03-16 03:04:00,19.2,11.0,29.81,North,0,0.0,7.2,70,0.00,,,0.00,WUHU21623XXSP,2013-03-16 07:04:00,
2013-03-16 03:06:00,18.9,10.6,29.82,North,0,2.0,2.9,70,0.00,,,0.00,WUHU21623XXSP,2013-03-16 07:06:00,
2013-03-16 03:08:00,18.5,10.3,29.82,North,0,2.7,2.7,70,0.00,,,0.00,WUHU21623XXSP,2013-03-16 07:08:00,
2013-03-16 03:10:00,18.3,10.1,29.81,North,0,0.0,2.7,70,0.00,,,0.00,WUHU21623XXSP,2013-03-16 07:10:00,
2013-03-16 03:13:00,18.3,10.1,29.81,North,0,3.1,3.1,70,0.00,,,0.00,WUHU21623XXSP,2013-03-16 07:13:00,
2013-03-16 03:15:00,18.1,10.0,29.82,North,0,0.0,3.1,70,0.00,,,0.00,WUHU21623XXSP,2013-03-16 07:15:00,
2013-03-16 03:17:00,18.0,9.8,29.82,North,0,0.7,3.1,70,0.00,,,0.00,WUHU21623XXSP,2013-03-16 07:17:00,
2013-03-16 03:19:00,17.8,9.7,29.81,North,0,3.4,3.4,70,0.00,,,0.00,WUHU21623XXSP,2013-03-16 07:19:00,
2013-03-16 03:21:00,17.8,9.9,29.82,North,0,2.2,3.4,71,0.00,,,0.00,WUHU21623XXSP,2013-03-16 07:21:00,
2013-03-16 03:23:00,18.0,10.1,29.81,NNE,22,2.7,3.4,71,0.00,,,0.00,WUHU21623XXSP,2013-03-16 07:23:00,
2013-03-16 03:25:00,18.1,10.3,29.82,NNE,22,2.7,3.4,71,0.00,,,0.00,WUHU21623XXSP,2013-03-16 07:25:00,
2013-03-16 03:28:00,18.1,10.3,29.81,NNE,22,1.3,3.4,71,0.00,,,0.00,WUHU21623XXSP,2013-03-16 07:28:00,
2013-03-16 03:30:00,18.0,10.1,29.81,NNE,22,2.7,2.7,71,0.00,,,0.00,WUHU21623XXSP,2013-03-16 07:30:00,
2013-03-16 03:32:00,17.8,10.2,29.82,NNE,22,2.0,2.7,72,0.00,,,0.00,WUHU21623XXSP,2013-03-16 07:32:00,
2013-03-16 03:34:00,17.8,10.2,29.81,NNE,22,0.0,2.7,72,0.00,,,0.00,WUHU21623XXSP,2013-03-16 07:34:00,
2013-03-16 03:36:00,17.4,9.6,29.81,NNE,22,0.0,2.7,71,0.00,,,0.00,WUHU21623XXSP,2013-03-16 07:36:00,
2013-03-16 03:38:00,17.4,9.6,29.81,NNE,22,0.0,2.7,71,0.00,,,0.00,WUHU21623XXSP,2013-03-16 07:38:00,
2013-03-16 03:40:00,17.1,9.2,29.82,NNE,22,0.0,2.0,71,0.00,,,0.00,WUHU21623XXSP,2013-03-16 07:40:00,
2013-03-16 03:43:00,16.7,8.9,29.81,NNE,22,0.0,0.0,71,0.00,,,0.00,WUHU21623XXSP,2013-03-16 07:43:00,
2013-03-16 03:45:00,16.3,8.5,29.81,NNE,22,0.0,0.0,71,0.00,,,0.00,WUHU21623XXSP,2013-03-16 07:45:00,
2013-03-16 03:47:00,16.0,8.5,29.81,NNE,22,0.0,0.0,72,0.00,,,0.00,WUHU21623XXSP,2013-03-16 07:47:00,
2013-03-16 03:49:00,15.6,8.1,29.81,NNE,22,0.0,0.0,72,0.00,,,0.00,WUHU21623XXSP,2013-03-16 07:49:00,
2013-03-16 03:51:00,15.8,8.6,29.81,NNE,22,0.0,0.0,73,0.00,,,0.00,WUHU21623XXSP,2013-03-16 07:51:00,
2013-03-16 03:54:00,15.8,8.6,29.82,NNE,22,0.0,0.0,73,0.00,,,0.00,WUHU21623XXSP,2013-03-16 07:54:00,
2013-03-16 03:57:00,15.8,8.6,29.81,NNE,22,2.2,2.2,73,0.00,,,0.00,WUHU21623XXSP,2013-03-16 07:57:00,
2013-03-16 04:00:00,16.3,9.1,29.80,NNE,22,0.4,2.2,73,0.00,,,0.00,WUHU21623XXSP,2013-03-16 08:00:00,
2013-03-16 04:02:00,16.2,9.0,29.80,NNE,22,0.9,2.2,73,0.00,,,0.00,WUHU21623XXSP,2013-03-16 08:02:00,
2013-03-16 04:04:00,16.3,9.4,29.80,NE,45,5.6,5.6,74,0.00,,,0.00,WUHU21623XXSP,2013-03-16 08:04:00,
2013-03-16 04:06:00,16.3,9.1,29.81,NE,45,0.7,5.6,73,0.00,,,0.00,WUHU21623XXSP,2013-03-16 08:06:00,
2013-03-16 04:08:00,16.5,9.3,29.80,NE,45,0.0,5.6,73,0.00,,,0.00,WUHU21623XXSP,2013-03-16 08:08:00,
2013-03-16 04:10:00,16.3,9.1,29.80,NE,45,1.8,5.6,73,0.00,,,0.00,WUHU21623XXSP,2013-03-16 08:10:00,
2013-03-16 04:13:00,16.3,9.4,29.81,NNE,22,4.0,5.6,74,0.00,,,0.00,WUHU21623XXSP,2013-03-16 08:13:00,
2013-03-16 04:15:00,16.3,9.1,29.80,NNE,22,0.7,4.0,73,0.00,,,0.00,WUHU21623XXSP,2013-03-16 08:15:00,
2013-03-16 04:17:00,16.3,9.4,29.80,NE,45,2.5,4.0,74,0.00,,,0.00,WUHU21623XXSP,2013-03-16 08:17:00,
2013-03-16 04:19:00,16.3,9.1,29.80,NE,45,0.0,4.0,73,0.00,,,0.00,WUHU21623XXSP,2013-03-16 08:19:00,
2013-03-16 04:21:00,16.2,9.0,29.80,NNE,22,0.0,4.0,73,0.00,,,0.00,WUHU21623XXSP,2013-03-16 08:21:00,
2013-03-16 04:23:00,16.0,8.8,29.81,NNE,22,0.0,2.5,73,0.00,,,0.00,WUHU21623XXSP,2013-03-16 08:23:00,
2013-03-16 04:25:00,15.8,8.6,29.81,NNE,22,4.0,4.0,73,0.00,,,0.00,WUHU21623XXSP,2013-03-16 08:25:00,
2013-03-16 04:28:00,16.0,9.1,29.81,NNE,22,0.9,4.0,74,0.00,,,0.00,WUHU21623XXSP,2013-03-16 08:28:00,
2013-03-16 04:30:00,16.2,9.3,29.81,NNE,22,0.0,4.0,74,0.00,,,0.00,WUHU21623XXSP,2013-03-16 08:30:00,
2013-03-16 04:32:00,16.0,8.8,29.82,NNE,22,0.0,4.0,73,0.00,,,0.00,WUHU21623XXSP,2013-03-16 08:32:00,
2013-03-16 04:34:00,15.8,8.6,29.81,NNE,22,0.0,4.0,73,0.00,,,0.00,WUHU21623XXSP,2013-03-16 08:34:00,
2013-03-16 04:36:00,15.6,8.7,29.82,NE,45,0.0,0.9,74,0.00,,,0.00,WUHU21623XXSP,2013-03-16 08:36:00,
2013-03-16 04:38:00,15.6,8.4,29.81,NE,45,0.0,0.0,73,0.00,,,0.00,WUHU21623XXSP,2013-03-16 08:38:00,
2013-03-16 04:40:00,15.4,8.6,29.82,NE,45,0.0,0.0,74,0.00,,,0.00,WUHU21623XXSP,2013-03-16 08:40:00,
2013-03-16 04:42:00,15.4,8.6,29.82,NE,45,1.3,1.3,74,0.00,,,0.00,WUHU21623XXSP,2013-03-16 08:42:00,
2013-03-16 04:45:00,15.4,8.6,29.82,NE,45,1.8,1.8,74,0.00,,,0.00,WUHU21623XXSP,2013-03-16 08:45:00,
2013-03-16 04:47:00,15.4,8.6,29.81,NE,45,0.0,1.8,74,0.00,,,0.00,WUHU21623XXSP,2013-03-16 08:47:00,
2013-03-16 04:49:00,15.3,8.4,29.81,NE,45,0.0,1.8,74,0.00,,,0.00,WUHU21623XXSP,2013-03-16 08:49:00,
2013-03-16 04:51:00,14.9,8.1,29.81,NE,45,2.2,2.2,74,0.00,,,0.00,WUHU21623XXSP,2013-03-16 08:51:00,
2013-03-16 04:54:00,14.9,8.1,29.82,NE,45,2.2,2.2,74,0.00,,,0.00,WUHU21623XXSP,2013-03-16 08:54:00,
2013-03-16 04:57:00,14.9,8.1,29.82,NE,45,0.0,2.2,74,0.00,,,0.00,WUHU21623XXSP,2013-03-16 08:57:00,
2013-03-16 05:00:00,14.5,7.7,29.82,NE,45,0.0,2.2,74,0.00,,,0.00,WUHU21623XXSP,2013-03-16 09:00:00,
2013-03-16 05:02:00,14.4,7.6,29.82,NE,45,0.0,2.2,74,0.00,,,0.00,WUHU21623XXSP,2013-03-16 09:02:00,
2013-03-16 05:04:00,14.4,7.6,29.82,NE,45,2.2,2.2,74,0.00,,,0.00,WUHU21623XXSP,2013-03-16 09:04:00,
2013-03-16 05:06:00,14.5,8.0,29.82,NE,45,0.0,2.2,75,0.00,,,0.00,WUHU21623XXSP,2013-03-16 09:06:00,
2013-03-16 05:08:00,14.5,8.0,29.82,NE,45,2.7,2.7,75,0.00,,,0.00,WUHU21623XXSP,2013-03-16 09:08:00,
2013-03-16 05:10:00,14.7,8.2,29.82,NE,45,3.8,3.8,75,0.00,,,0.00,WUHU21623XXSP,2013-03-16 09:10:00,
2013-03-16 05:12:00,14.9,8.4,29.82,NE,45,4.7,4.7,75,0.00,,,0.00,WUHU21623XXSP,2013-03-16 09:12:00,
2013-03-16 05:15:00,15.1,8.5,29.82,NE,45,1.6,4.7,75,0.00,,,0.00,WUHU21623XXSP,2013-03-16 09:15:00,
2013-03-16 05:17:00,15.3,8.7,29.82,NE,45,0.0,4.7,75,0.00,,,0.00,WUHU21623XXSP,2013-03-16 09:17:00,
2013-03-16 05:19:00,15.4,8.9,29.83,NE,45,2.7,4.7,75,0.00,,,0.00,WUHU21623XXSP,2013-03-16 09:19:00,
2013-03-16 05:21:00,15.6,9.1,29.83,NNE,22,5.6,5.6,75,0.00,,,0.00,WUHU21623XXSP,2013-03-16 09:21:00,
2013-03-16 05:23:00,15.8,9.2,29.83,NNE,22,5.8,5.8,75,0.00,,,0.00,WUHU21623XXSP,2013-03-16 09:23:00,
2013-03-16 05:25:00,15.8,9.2,29.83,NNE,22,6.0,6.0,75,0.00,,,0.00,WUHU21623XXSP,2013-03-16 09:25:00,
2013-03-16 05:28:00,15.8,8.9,29.83,NNE,22,0.7,6.0,74,0.00,,,0.00,WUHU21623XXSP,2013-03-16 09:28:00,
2013-03-16 05:30:00,15.8,8.9,29.83,NNE,22,0.0,6.0,74,0.00,,,0.00,WUHU21623XXSP,2013-03-16 09:30:00,
2013-03-16 05:32:00,15.6,8.7,29.83,NNE,22,0.0,6.0,74,0.00,,,0.00,WUHU21623XXSP,2013-03-16 09:32:00,
2013-03-16 05:34:00,15.6,8.7,29.83,NE,45,0.0,6.0,74,0.00,,,0.00,WUHU21623XXSP,2013-03-16 09:34:00,
2013-03-16 05:36:00,15.4,8.6,29.83,NE,45,0.0,0.7,74,0.00,,,0.00,WUHU21623XXSP,2013-03-16 09:36:00,
2013-03-16 05:38:00,15.3,8.4,29.83,NE,45,0.0,0.0,74,0.00,,,0.00,WUHU21623XXSP,2013-03-16 09:38:00,
2013-03-16 05:40:00,15.1,8.2,29.83,NE,45,0.0,0.0,74,0.00,,,0.00,WUHU21623XXSP,2013-03-16 09:40:00,
2013-03-16 05:42:00,14.9,8.1,29.83,NE,45,0.0,0.0,74,0.00,,,0.00,WUHU21623XXSP,2013-03-16 09:42:00,
2013-03-16 05:45:00,14.9,8.1,29.83,NE,45,0.0,0.0,74,0.00,,,0.00,WUHU21623XXSP,2013-03-16 09:45:00,
2013-03-16 05:47:00,14.7,8.2,29.83,NE,45,0.0,0.0,75,0.00,,,0.00,WUHU21623XXSP,2013-03-16 09:47:00,
2013-03-16 05:49:00,14.7,8.2,29.83,NE,45,0.0,0.0,75,0.00,,,0.00,WUHU21623XXSP,2013-03-16 09:49:00,
2013-03-16 05:51:00,14.7,8.2,29.83,NE,45,0.0,0.0,75,0.00,,,0.00,WUHU21623XXSP,2013-03-16 09:51:00,
2013-03-16 05:53:00,14.7,8.2,29.83,NE,45,0.0,0.0,75,0.00,,,0.00,WUHU21623XXSP,2013-03-16 09:53:00,
2013-03-16 05:55:00,14.4,7.6,29.83,NE,45,0.0,0.0,74,0.00,,,0.00,WUHU21623XXSP,2013-03-16 09:55:00,
2013-03-16 05:57:00,14.2,7.4,29.83,NE,45,0.0,0.0,74,0.00,,,0.00,WUHU21623XXSP,2013-03-16 09:57:00,
2013-03-16 06:00:00,13.6,6.9,29.84,NE,45,0.0,0.0,74,0.00,,,0.00,WUHU21623XXSP,2013-03-16 10:00:00,
2013-03-16 06:02:00,13.6,6.9,29.84,NE,45,0.0,0.0,74,0.00,,,0.00,WUHU21623XXSP,2013-03-16 10:02:00,
2013-03-16 06:04:00,13.6,7.4,29.84,NE,45,2.2,2.2,76,0.00,,,0.00,WUHU21623XXSP,2013-03-16 10:04:00,
2013-03-16 06:06:00,13.8,7.6,29.84,NE,45,0.0,2.2,76,0.00,,,0.00,WUHU21623XXSP,2013-03-16 10:06:00,
2013-03-16 06:08:00,13.8,7.6,29.84,NE,45,1.6,2.2,76,0.00,,,0.00,WUHU21623XXSP,2013-03-16 10:08:00,
2013-03-16 06:10:00,14.2,8.0,29.84,NNE,22,0.0,2.2,76,0.00,,,0.00,WUHU21623XXSP,2013-03-16 10:10:00,
2013-03-16 06:12:00,14.2,8.0,29.84,NNE,22,1.1,2.2,76,0.00,,,0.00,WUHU21623XXSP,2013-03-16 10:12:00,
2013-03-16 06:15:00,14.5,8.3,29.84,NNE,22,0.7,1.6,76,0.00,,,0.00,WUHU21623XXSP,2013-03-16 10:15:00,
2013-03-16 06:17:00,14.5,8.3,29.84,NNE,22,1.3,1.6,76,0.00,,,0.00,WUHU21623XXSP,2013-03-16 10:17:00,
2013-03-16 06:19:00,14.7,8.5,29.84,NNE,22,0.0,1.3,76,0.00,,,0.00,WUHU21623XXSP,2013-03-16 10:19:00,
2013-03-16 06:21:00,15.1,8.8,29.84,NNE,22,2.0,2.0,76,0.00,,,0.00,WUHU21623XXSP,2013-03-16 10:21:00,
2013-03-16 06:23:00,15.3,9.0,29.84,NNE,22,0.0,2.0,76,0.00,,,0.00,WUHU21623XXSP,2013-03-16 10:23:00,
2013-03-16 06:25:00,15.4,9.2,29.84,NE,45,4.5,4.5,76,0.00,,,0.00,WUHU21623XXSP,2013-03-16 10:25:00,
2013-03-16 06:27:00,15.6,9.4,29.85,NE,45,1.8,4.5,76,0.00,,,0.00,WUHU21623XXSP,2013-03-16 10:27:00,
2013-03-16 06:30:00,15.8,9.5,29.84,NE,45,0.0,4.5,76,0.00,,,0.00,WUHU21623XXSP,2013-03-16 10:30:00,
2013-03-16 06:32:00,16.2,9.6,29.84,NE,45,0.0,4.5,75,0.00,,,0.00,WUHU21623XXSP,2013-03-16 10:32:00,
2013-03-16 06:34:00,16.2,9.6,29.84,NE,45,2.9,4.5,75,0.00,,,0.00,WUHU21623XXSP,2013-03-16 10:34:00,
2013-03-16 06:36:00,16.3,9.7,29.84,NE,45,1.6,2.9,75,0.00,,,0.00,WUHU21623XXSP,2013-03-16 10:36:00,
2013-03-16 06:38:00,16.5,9.9,29.84,NE,45,0.0,2.9,75,0.00,,,0.00,WUHU21623XXSP,2013-03-16 10:38:00,
2013-03-16 06:40:00,16.9,10.3,29.84,NE,45,2.0,2.9,75,0.00,,,0.00,WUHU21623XXSP,2013-03-16 10:40:00,
2013-03-16 06:42:00,16.9,10.3,29.84,NE,45,0.0,2.9,75,0.00,,,0.00,WUHU21623XXSP,2013-03-16 10:42:00,
2013-03-16 06:45:00,17.1,10.4,29.84,NE,45,0.0,2.0,75,0.00,,,0.00,WUHU21623XXSP,2013-03-16 10:45:00,
2013-03-16 06:47:00,17.2,10.3,29.85,NE,45,0.0,2.0,74,0.00,,,0.00,WUHU21623XXSP,2013-03-16 10:47:00,
2013-03-16 06:49:00,17.2,10.3,29.85,NE,45,0.0,2.0,74,0.00,,,0.00,WUHU21623XXSP,2013-03-16 10:49:00,
2013-03-16 06:51:00,17.4,10.8,29.85,NE,45,0.0,0.0,75,0.00,,,0.00,WUHU21623XXSP,2013-03-16 10:51:00,
2013-03-16 06:53:00,17.4,10.8,29.85,NE,45,0.7,0.7,75,0.00,,,0.00,WUHU21623XXSP,2013-03-16 10:53:00,
2013-03-16 06:55:00,17.8,10.8,29.85,NE,45,1.8,1.8,74,0.00,,,0.00,WUHU21623XXSP,2013-03-16 10:55:00,
2013-03-16 06:57:00,17.8,10.8,29.85,ENE,67,0.0,1.8,74,0.00,,,0.00,WUHU21623XXSP,2013-03-16 10:57:00,
2013-03-16 06:59:00,17.8,10.8,29.85,ENE,67,2.0,2.0,74,0.00,,,0.00,WUHU21623XXSP,2013-03-16 10:59:00,
2013-03-16 07:02:00,18.0,11.0,29.84,ENE,67,0.0,2.0,74,0.00,,,0.00,WUHU21623XXSP,2013-03-16 11:02:00,
2013-03-16 07:04:00,18.0,11.0,29.84,ENE,67,0.0,2.0,74,0.00,,,0.00,WUHU21623XXSP,2013-03-16 11:04:00,
2013-03-16 07:06:00,18.1,11.2,29.84,ENE,67,0.0,2.0,74,0.00,,,0.00,WUHU21623XXSP,2013-03-16 11:06:00,
2013-03-16 07:08:00,18.1,10.8,29.84,ENE,67,0.0,2.0,73,0.00,,,0.00,WUHU21623XXSP,2013-03-16 11:08:00,
2013-03-16 07:10:00,18.1,10.8,29.84,ENE,67,0.7,0.7,73,0.00,,,0.00,WUHU21623XXSP,2013-03-16 11:10:00,
2013-03-16 07:12:00,18.3,11.0,29.84,ENE,67,0.0,0.7,73,0.00,,,0.00,WUHU21623XXSP,2013-03-16 11:12:00,
2013-03-16 07:14:00,18.3,11.0,29.84,NNE,22,0.4,0.7,73,0.00,,,0.00,WUHU21623XXSP,2013-03-16 11:14:00,
2013-03-16 07:17:00,18.3,11.0,29.84,NE,45,0.0,0.7,73,0.00,,,0.00,WUHU21623XXSP,2013-03-16 11:17:00,
2013-03-16 07:19:00,18.3,10.7,29.84,NNE,22,1.6,1.6,72,0.00,,,0.00,WUHU21623XXSP,2013-03-16 11:19:00,
2013-03-16 07:21:00,18.3,10.7,29.84,NNE,22,2.7,2.7,72,0.00,,,0.00,WUHU21623XXSP,2013-03-16 11:21:00,
2013-03-16 07:23:00,18.3,10.7,29.85,NE,45,4.3,4.3,72,0.00,,,0.00,WUHU21623XXSP,2013-03-16 11:23:00,
2013-03-16 07:25:00,18.3,10.7,29.85,NE,45,1.6,4.3,72,0.00,,,0.00,WUHU21623XXSP,2013-03-16 11:25:00,
2013-03-16 07:27:00,18.5,10.9,29.85,NE,45,2.7,4.3,72,0.00,,,0.00,WUHU21623XXSP,2013-03-16 11:27:00,
2013-03-16 07:29:00,18.5,10.9,29.85,NE,45,4.3,4.3,72,0.00,,,0.00,WUHU21623XXSP,2013-03-16 11:29:00,
2013-03-16 07:32:00,18.9,11.2,29.85,NNE,22,4.3,4.3,72,0.00,,,0.00,WUHU21623XXSP,2013-03-16 11:32:00,
2013-03-16 07:34:00,19.0,11.4,29.85,NE,45,1.8,4.3,72,0.00,,,0.00,WUHU21623XXSP,2013-03-16 11:34:00,
2013-03-16 07:36:00,19.2,11.6,29.85,NE,45,0.0,4.3,72,0.00,,,0.00,WUHU21623XXSP,2013-03-16 11:36:00,
2013-03-16 07:38:00,19.2,11.6,29.85,ENE,67,0.0,4.3,72,0.00,,,0.00,WUHU21623XXSP,2013-03-16 11:38:00,
2013-03-16 07:40:00,19.2,11.2,29.85,NNE,22,3.6,4.3,71,0.00,,,0.00,WUHU21623XXSP,2013-03-16 11:40:00,
2013-03-16 07:42:00,19.2,11.2,29.85,ENE,67,0.0,3.6,71,0.00,,,0.00,WUHU21623XXSP,2013-03-16 11:42:00,
2013-03-16 07:44:00,19.4,11.4,29.85,NE,45,0.0,3.6,71,0.00,,,0.00,WUHU21623XXSP,2013-03-16 11:44:00,
2013-03-16 07:47:00,19.6,11.6,29.85,NE,45,0.0,3.6,71,0.00,,,0.00,WUHU21623XXSP,2013-03-16 11:47:00,
2013-03-16 07:49:00,19.8,11.8,29.85,NNE,22,6.3,6.3,71,0.00,,,0.00,WUHU21623XXSP,2013-03-16 11:49:00,
2013-03-16 07:51:00,19.6,11.6,29.85,NE,45,2.7,6.3,71,0.00,,,0.00,WUHU21623XXSP,2013-03-16 11:51:00,
2013-03-16 07:53:00,19.8,11.8,29.85,NE,45,0.0,6.3,71,0.00,,,0.00,WUHU21623XXSP,2013-03-16 11:53:00,
2013-03-16 07:55:00,19.8,11.5,29.85,ENE,67,2.0,6.3,70,0.00,,,0.00,WUHU21623XXSP,2013-03-16 11:55:00,
2013-03-16 07:57:00,19.9,11.3,29.85,NNE,22,5.1,6.3,69,0.00,,,0.00,WUHU21623XXSP,2013-03-16 11:57:00,
2013-03-16 07:59:00,19.6,11.3,29.85,NE,45,0.2,5.1,70,0.00,,,0.00,WUHU21623XXSP,2013-03-16 11:59:00,
2013-03-16 08:01:00,19.9,11.3,29.85,ENE,67,0.0,5.1,69,0.00,,,0.00,WUHU21623XXSP,2013-03-16 12:01:00,
2013-03-16 08:04:00,20.1,11.5,29.85,ENE,67,2.0,5.1,69,0.00,,,0.00,WUHU21623XXSP,2013-03-16 12:04:00,
2013-03-16 08:06:00,20.3,11.7,29.85,ENE,67,0.0,5.1,69,0.00,,,0.00,WUHU21623XXSP,2013-03-16 12:06:00,
2013-03-16 08:08:00,20.5,11.5,29.85,NE,45,4.9,4.9,68,0.00,,,0.00,WUHU21623XXSP,2013-03-16 12:08:00,
2013-03-16 08:10:00,20.5,11.5,29.85,NE,45,2.5,4.9,68,0.00,,,0.00,WUHU21623XXSP,2013-03-16 12:10:00,
2013-03-16 08:12:00,20.5,11.9,29.85,NNE,22,3.1,4.9,69,0.00,,,0.00,WUHU21623XXSP,2013-03-16 12:12:00,
2013-03-16 08:14:00,20.5,11.2,29.85,NNE,22,8.7,8.7,67,0.00,,,0.00,WUHU21623XXSP,2013-03-16 12:14:00,
2013-03-16 08:16:00,20.1,10.8,29.84,NE,45,6.3,8.7,67,0.00,,,0.00,WUHU21623XXSP,2013-03-16 12:16:00,
2013-03-16 08:19:00,20.3,11.3,29.85,NE,45,1.1,8.7,68,0.00,,,0.00,WUHU21623XXSP,2013-03-16 12:19:00,
2013-03-16 08:21:00,20.5,11.5,29.84,NE,45,4.7,8.7,68,0.00,,,0.00,WUHU21623XXSP,2013-03-16 12:21:00,
2013-03-16 08:23:00,20.8,11.5,29.84,North,0,7.8,8.7,67,0.00,,,0.00,WUHU21623XXSP,2013-03-16 12:23:00,
2013-03-16 08:25:00,21.0,11.7,29.84,North,0,7.4,7.8,67,0.00,,,0.00,WUHU21623XXSP,2013-03-16 12:25:00,
2013-03-16 08:27:00,21.6,12.2,29.84,NNE,22,0.0,7.8,67,0.00,,,0.00,WUHU21623XXSP,2013-03-16 12:27:00,
2013-03-16 08:29:00,21.6,12.2,29.84,ENE,67,2.0,7.8,67,0.00,,,0.00,WUHU21623XXSP,2013-03-16 12:29:00,
2013-03-16 08:32:00,22.8,13.5,29.84,ENE,67,2.0,7.8,67,0.00,,,0.00,WUHU21623XXSP,2013-03-16 12:32:00,
2013-03-16 08:34:00,22.8,13.5,29.84,ENE,67,2.0,7.4,67,0.00,,,0.00,WUHU21623XXSP,2013-03-16 12:34:00,
2013-03-16 08:36:00,22.8,13.1,29.85,NE,45,1.6,2.0,66,0.00,,,0.00,WUHU21623XXSP,2013-03-16 12:36:00,
2013-03-16 08:38:00,22.8,12.4,29.85,SE,135,5.1,5.1,64,0.00,,,0.00,WUHU21623XXSP,2013-03-16 12:38:00,
2013-03-16 08:40:00,22.8,12.4,29.85,ENE,67,2.2,5.1,64,0.00,,,0.00,WUHU21623XXSP,2013-03-16 12:40:00,
2013-03-16 08:42:00,23.2,12.7,29.85,ENE,67,2.2,5.1,64,0.00,,,0.00,WUHU21623XXSP,2013-03-16 12:42:00,
2013-03-16 08:44:00,23.0,12.6,29.85,ENE,67,2.2,5.1,64,0.00,,,0.00,WUHU21623XXSP,2013-03-16 12:44:00,
2013-03-16 08:46:00,23.2,12.7,29.85,ENE,67,2.2,5.1,64,0.00,,,0.00,WUHU21623XXSP,2013-03-16 12:46:00,
2013-03-16 08:49:00,23.2,12.4,29.85,ENE,67,2.2,2.2,63,0.00,,,0.00,WUHU21623XXSP,2013-03-16 12:49:00,
2013-03-16 08:51:00,23.4,12.5,29.85,South,180,1.1,2.2,63,0.00,,,0.00,WUHU21623XXSP,2013-03-16 12:51:00,
2013-03-16 08:53:00,23.5,12.7,29.84,South,180,0.0,2.2,63,0.00,,,0.00,WUHU21623XXSP,2013-03-16 12:53:00,
2013-03-16 08:55:00,24.1,12.9,29.85,SW,225,0.0,2.2,62,0.00,,,0.00,WUHU21623XXSP,2013-03-16 12:55:00,
2013-03-16 08:57:00,23.5,12.0,29.85,SW,225,0.0,2.2,61,0.00,,,0.00,WUHU21623XXSP,2013-03-16 12:57:00,
2013-03-16 08:59:00,23.4,12.2,29.84,SW,225,0.0,1.1,62,0.00,,,0.00,WUHU21623XXSP,2013-03-16 12:59:00,
2013-03-16 09:01:00,23.4,12.2,29.84,ESE,112,4.5,4.5,62,0.00,,,0.00,WUHU21623XXSP,2013-03-16 13:01:00,
2013-03-16 09:04:00,24.3,12.4,29.84,ESE,112,3.4,4.5,60,0.00,,,0.00,WUHU21623XXSP,2013-03-16 13:04:00,
2013-03-16 09:06:00,24.4,12.6,29.84,ESE,112,0.0,4.5,60,0.00,,,0.00,WUHU21623XXSP,2013-03-16 13:06:00,
2013-03-16 09:08:00,24.4,12.9,29.84,NE,45,5.4,5.4,61,0.00,,,0.00,WUHU21623XXSP,2013-03-16 13:08:00,
2013-03-16 09:10:00,24.4,12.6,29.84,NNW,337,5.6,5.6,60,0.00,,,0.00,WUHU21623XXSP,2013-03-16 13:10:00,
2013-03-16 09:12:00,24.4,12.1,29.84,North,0,3.8,5.6,59,0.00,,,0.00,WUHU21623XXSP,2013-03-16 13:12:00,
2013-03-16 09:14:00,24.4,12.6,29.84,North,0,4.5,5.6,60,0.00,,,0.00,WUHU21623XXSP,2013-03-16 13:14:00,
2013-03-16 09:16:00,24.4,12.1,29.84,North,0,0.0,5.6,59,0.00,,,0.00,WUHU21623XXSP,2013-03-16 13:16:00,
2013-03-16 09:18:00,24.6,12.7,29.84,North,0,0.0,5.6,60,0.00,,,0.00,WUHU21623XXSP,2013-03-16 13:18:00,
2013-03-16 09:21:00,25.5,13.6,29.84,NNW,337,1.3,4.5,60,0.00,,,0.00,WUHU21623XXSP,2013-03-16 13:21:00,
2013-03-16 09:23:00,25.7,13.3,29.84,North,0,5.4,5.4,59,0.00,,,0.00,WUHU21623XXSP,2013-03-16 13:23:00,
2013-03-16 09:25:00,25.7,12.9,29.84,North,0,7.2,7.2,58,0.00,,,0.00,WUHU21623XXSP,2013-03-16 13:25:00,
2013-03-16 09:27:00,25.5,13.2,29.84,NE,45,4.7,7.2,59,0.00,,,0.00,WUHU21623XXSP,2013-03-16 13:27:00,
2013-03-16 09:29:00,25.5,13.2,29.84,NE,45,1.6,7.2,59,0.00,,,0.00,WUHU21623XXSP,2013-03-16 13:29:00,
2013-03-16 09:31:00,26.2,14.2,29.84,NE,45,1.6,7.2,60,0.00,,,0.00,WUHU21623XXSP,2013-03-16 13:31:00,
2013-03-16 09:34:00,26.8,14.3,29.83,NNE,22,3.1,7.2,59,0.00,,,0.00,WUHU21623XXSP,2013-03-16 13:34:00,
2013-03-16 09:36:00,26.8,13.9,29.83,NNE,22,3.8,4.7,58,0.00,,,0.00,WUHU21623XXSP,2013-03-16 13:36:00,
2013-03-16 09:38:00,26.4,13.1,29.83,NNE,22,0.9,3.8,57,0.00,,,0.00,WUHU21623XXSP,2013-03-16 13:38:00,
2013-03-16 09:40:00,26.2,13.0,29.83,NE,45,3.6,3.8,57,0.00,,,0.00,WUHU21623XXSP,2013-03-16 13:40:00,
2013-03-16 09:42:00,26.1,13.2,29.83,NE,45,4.5,4.5,58,0.00,,,0.00,WUHU21623XXSP,2013-03-16 13:42:00,
2013-03-16 09:44:00,26.4,13.6,29.83,NNE,22,4.5,4.5,58,0.00,,,0.00,WUHU21623XXSP,2013-03-16 13:44:00,
2013-03-16 09:46:00,26.6,13.7,29.83,East,90,0.0,4.5,58,0.00,,,0.00,WUHU21623XXSP,2013-03-16 13:46:00,
2013-03-16 09:48:00,27.7,14.0,29.83,NE,45,5.6,5.6,56,0.00,,,0.00,WUHU21623XXSP,2013-03-16 13:48:00,
2013-03-16 09:51:00,28.6,14.8,29.83,ENE,67,0.0,5.6,56,0.00,,,0.00,WUHU21623XXSP,2013-03-16 13:51:00,
2013-03-16 09:53:00,28.6,14.4,29.83,NNE,22,4.9,5.6,55,0.00,,,0.00,WUHU21623XXSP,2013-03-16 13:53:00,
2013-03-16 09:55:00,28.2,14.5,29.82,NE,45,3.8,5.6,56,0.00,,,0.00,WUHU21623XXSP,2013-03-16 13:55:00,
2013-03-16 09:57:00,28.0,13.9,29.83,NNE,22,3.1,5.6,55,0.00,,,0.00,WUHU21623XXSP,2013-03-16 13:57:00,
2013-03-16 09:59:00,28.0,14.3,29.83,NNE,22,3.8,4.9,56,0.00,,,0.00,WUHU21623XXSP,2013-03-16 13:59:00,
2013-03-16 10:01:00,27.7,14.0,29.82,NE,45,4.0,4.9,56,0.00,,,0.00,WUHU21623XXSP,2013-03-16 14:01:00,
2013-03-16 10:03:00,27.5,13.8,29.82,NE,45,2.2,4.0,56,0.00,,,0.00,WUHU21623XXSP,2013-03-16 14:03:00,
2013-03-16 10:06:00,27.5,13.4,29.82,NE,45,2.2,4.0,55,0.00,,,0.00,WUHU21623XXSP,2013-03-16 14:06:00,
2013-03-16 10:08:00,27.1,13.0,29.82,NNE,22,1.6,4.0,55,0.00,,,0.00,WUHU21623XXSP,2013-03-16 14:08:00,
2013-03-16 10:10:00,27.0,12.8,29.82,NNE,22,0.0,4.0,55,0.00,,,0.00,WUHU21623XXSP,2013-03-16 14:10:00,
2013-03-16 10:12:00,27.1,13.4,29.82,NNE,22,0.0,2.2,56,0.00,,,0.00,WUHU21623XXSP,2013-03-16 14:12:00,
2013-03-16 10:14:00,27.7,13.1,29.82,NNE,22,3.8,3.8,54,0.00,,,0.00,WUHU21623XXSP,2013-03-16 14:14:00,
2013-03-16 10:16:00,27.5,13.0,29.82,NNW,337,5.1,5.1,54,0.00,,,0.00,WUHU21623XXSP,2013-03-16 14:16:00,
2013-03-16 10:18:00,26.8,12.2,29.82,NNW,337,5.1,5.1,54,0.00,,,0.00,WUHU21623XXSP,2013-03-16 14:18:00,
2013-03-16 10:21:00,26.6,12.5,29.82,NW,315,1.8,5.1,55,0.00,,,0.00,WUHU21623XXSP,2013-03-16 14:21:00,
2013-03-16 10:23:00,26.4,12.3,29.82,NNW,337,5.6,5.6,55,0.00,,,0.00,WUHU21623XXSP,2013-03-16 14:23:00,
2013-03-16 10:25:00,26.8,13.1,29.82,NW,315,2.9,5.6,56,0.00,,,0.00,WUHU21623XXSP,2013-03-16 14:25:00,
2013-03-16 10:27:00,26.8,12.2,29.82,NW,315,7.4,7.4,54,0.00,,,0.00,WUHU21623XXSP,2013-03-16 14:27:00,
2013-03-16 10:29:00,27.1,13.4,29.82,North,0,2.7,7.4,56,0.00,,,0.00,WUHU21623XXSP,2013-03-16 14:29:00,
2013-03-16 10:31:00,27.7,14.0,29.82,NNW,337,7.2,7.4,56,0.00,,,0.00,WUHU21623XXSP,2013-03-16 14:31:00,
2013-03-16 10:33:00,27.3,12.8,29.82,NNW,337,4.0,7.4,54,0.00,,,0.00,WUHU21623XXSP,2013-03-16 14:33:00,
2013-03-16 10:36:00,27.0,13.2,29.82,North,0,5.6,7.4,56,0.00,,,0.00,WUHU21623XXSP,2013-03-16 14:36:00,
2013-03-16 10:38:00,26.4,12.3,29.82,NNW,337,2.9,7.2,55,0.00,,,0.00,WUHU21623XXSP,2013-03-16 14:38:00,
2013-03-16 10:40:00,26.4,12.7,29.82,North,0,4.7,7.2,56,0.00,,,0.00,WUHU21623XXSP,2013-03-16 14:40:00,
2013-03-16 10:42:00,26.6,12.9,29.82,NW,315,5.6,5.6,56,0.00,,,0.00,WUHU21623XXSP,2013-03-16 14:42:00,
2013-03-16 10:44:00,26.4,12.7,29.83,NNE,22,1.3,5.6,56,0.00,,,0.00,WUHU21623XXSP,2013-03-16 14:44:00,
2013-03-16 10:46:00,26.8,13.1,29.83,NNW,337,3.4,5.6,56,0.00,,,0.00,WUHU21623XXSP,2013-03-16 14:46:00,
2013-03-16 10:48:00,26.8,12.6,29.83,North,0,3.6,5.6,55,0.00,,,0.00,WUHU21623XXSP,2013-03-16 14:48:00,
2013-03-16 10:51:00,27.0,12.8,29.83,NW,315,5.6,5.6,55,0.00,,,0.00,WUHU21623XXSP,2013-03-16 14:51:00,
2013-03-16 10:53:00,26.8,12.6,29.83,NNW,337,6.3,6.3,55,0.00,,,0.00,WUHU21623XXSP,2013-03-16 14:53:00,
2013-03-16 10:55:00,26.4,12.7,29.83,North,0,6.7,6.7,56,0.00,,,0.00,WUHU21623XXSP,2013-03-16 14:55:00,
2013-03-16 10:57:00,26.2,12.6,29.83,NNE,22,3.8,6.7,56,0.00,,,0.00,WUHU21623XXSP,2013-03-16 14:57:00,
2013-03-16 10:59:00,26.2,12.6,29.83,NNE,22,1.3,6.7,56,0.00,,,0.00,WUHU21623XXSP,2013-03-16 14:59:00,
2013-03-16 11:01:00,26.2,12.1,29.83,North,0,1.1,6.7,55,0.00,,,0.00,WUHU21623XXSP,2013-03-16 15:01:00,
2013-03-16 11:03:00,25.9,12.2,29.83,NNW,337,2.5,6.7,56,0.00,,,0.00,WUHU21623XXSP,2013-03-16 15:03:00,
2013-03-16 11:06:00,25.9,12.2,29.82,NW,315,2.2,3.8,56,0.00,,,0.00,WUHU21623XXSP,2013-03-16 15:06:00,
2013-03-16 11:08:00,25.7,12.1,29.83,NW,315,3.4,3.4,56,0.00,,,0.00,WUHU21623XXSP,2013-03-16 15:08:00,
2013-03-16 11:41:00,26.8,14.4,29.83,NNE,23,3.1,3.1,59,0.00,,,0.00,WUHU21623XXSP,2013-03-16 15:41:00,
2013-03-16 12:19:00,27.3,12.8,29.81,NNW,338,4.0,4.0,54,0.00,,,0.00,WUHU21623XXSP,2013-03-16 16:19:00,
2013-03-16 12:24:00,25.9,12.2,29.83,North,0,0.0,3.4,56,0.00,,,0.00,WUHU21623XXSP,2013-03-16 16:24:00,
2013-03-16 12:29:00,27.1,13.0,29.82,NW,315,5.4,5.4,55,0.00,,,0.00,WUHU21623XXSP,2013-03-16 16:29:00,
2013-03-16 12:34:00,26.2,11.7,29.83,NW,315,5.8,6.7,54,0.00,,,0.00,WUHU21623XXSP,2013-03-16 16:34:00,
2013-03-16 12:39:00,27.1,12.6,29.83,NW,315,5.8,6.7,54,0.00,,,0.00,WUHU21623XXSP,2013-03-16 16:39:00,
2013-03-16 12:44:00,28.0,13.1,29.82,WNW,292,2.0,5.8,53,0.00,,,0.00,WUHU21623XXSP,2013-03-16 16:44:00,
2013-03-16 12:49:00,29.5,14.0,29.82,West,270,0.0,4.0,52,0.00,,,0.00,WUHU21623XXSP,2013-03-16 16:49:00,
2013-03-16 12:54:00,30.6,14.6,29.82,West,270,2.0,4.0,51,0.00,,,0.00,WUHU21623XXSP,2013-03-16 16:54:00,
2013-03-16 12:59:00,29.3,13.0,29.82,North,0,5.8,6.5,50,0.00,,,0.00,WUHU21623XXSP,2013-03-16 16:59:00,
2013-03-16 13:04:00,29.3,13.8,29.82,North,0,0.0,6.5,52,0.00,,,0.00,WUHU21623XXSP,2013-03-16 17:04:00,
2013-03-16 13:09:00,29.8,13.5,29.82,WNW,292,0.0,8.5,50,0.00,,,0.00,WUHU21623XXSP,2013-03-16 17:09:00,
2013-03-16 13:14:00,30.4,14.0,29.82,NNW,337,7.4,8.5,50,0.00,,,0.00,WUHU21623XXSP,2013-03-16 17:14:00,
2013-03-16 13:19:00,30.2,14.2,29.81,East,90,2.9,7.4,51,0.00,,,0.00,WUHU21623XXSP,2013-03-16 17:19:00,
2013-03-16 13:24:00,29.8,13.5,29.82,WNW,292,4.3,7.2,50,0.00,,,0.00,WUHU21623XXSP,2013-03-16 17:24:00,
2013-03-16 13:29:00,29.8,13.5,29.82,NW,315,6.5,7.2,50,0.00,,,0.00,WUHU21623XXSP,2013-03-16 17:29:00,
2013-03-16 13:34:00,30.0,14.1,29.82,NNW,337,1.6,6.7,51,0.00,,,0.00,WUHU21623XXSP,2013-03-16 17:34:00,
2013-03-16 13:39:00,30.0,13.7,29.82,North,0,7.4,7.4,50,0.00,,,0.00,WUHU21623XXSP,2013-03-16 17:39:00,
2013-03-16 13:44:00,29.5,13.6,29.82,NNW,337,7.4,7.4,51,0.00,,,0.00,WUHU21623XXSP,2013-03-16 17:44:00,
2013-03-16 13:49:00,29.8,14.3,29.82,North,0,3.4,7.4,52,0.00,,,0.00,WUHU21623XXSP,2013-03-16 17:49:00,
2013-03-16 13:54:00,29.8,13.9,29.81,WNW,292,5.6,8.1,51,0.00,,,0.00,WUHU21623XXSP,2013-03-16 17:54:00,
2013-03-16 13:59:00,29.8,13.0,29.81,WNW,292,2.0,8.1,49,0.00,,,0.00,WUHU21623XXSP,2013-03-16 17:59:00,
2013-03-16 14:04:00,29.8,12.5,29.81,WNW,292,5.1,6.5,48,0.00,,,0.00,WUHU21623XXSP,2013-03-16 18:04:00,
2013-03-16 14:09:00,30.6,12.6,29.80,NW,315,5.4,5.4,47,0.00,,,0.00,WUHU21623XXSP,2013-03-16 18:09:00,
2013-03-16 14:14:00,30.0,12.6,29.80,NNE,22,6.7,6.7,48,0.00,,,0.00,WUHU21623XXSP,2013-03-16 18:14:00,
2013-03-16 14:19:00,30.7,12.8,29.80,West,270,7.2,7.2,47,0.00,,,0.00,WUHU21623XXSP,2013-03-16 18:19:00,
2013-03-16 14:24:00,30.4,13.0,29.79,NNW,337,3.8,7.2,48,0.00,,,0.00,WUHU21623XXSP,2013-03-16 18:24:00,
2013-03-16 14:29:00,30.9,12.5,29.79,WNW,292,0.0,6.9,46,0.00,,,0.00,WUHU21623XXSP,2013-03-16 18:29:00,
2013-03-16 14:34:00,32.2,13.6,29.79,WSW,247,0.0,6.9,46,0.00,,,0.00,WUHU21623XXSP,2013-03-16 18:34:00,
2013-03-16 14:39:00,32.4,12.7,29.79,WSW,247,2.9,7.8,44,0.00,,,0.00,WUHU21623XXSP,2013-03-16 18:39:00,
2013-03-16 14:44:00,32.9,12.7,29.79,WSW,247,3.6,7.8,43,0.00,,,0.00,WUHU21623XXSP,2013-03-16 18:44:00,
2013-03-16 14:49:00,32.0,12.4,29.79,West,270,1.6,4.7,44,0.00,,,0.00,WUHU21623XXSP,2013-03-16 18:49:00,
2013-03-16 14:54:00,33.1,11.9,29.79,WSW,247,3.4,4.7,41,0.00,,,0.00,WUHU21623XXSP,2013-03-16 18:54:00,
2013-03-16 14:59:00,31.8,11.8,29.79,WSW,247,8.5,8.5,43,0.00,,,0.00,WUHU21623XXSP,2013-03-16 18:59:00,
2013-03-16 15:04:00,31.1,12.6,29.79,WNW,292,7.6,8.5,46,0.00,,,0.00,WUHU21623XXSP,2013-03-16 19:04:00,
2013-03-16 15:09:00,31.6,12.1,29.79,WSW,247,0.7,7.6,44,0.00,,,0.00,WUHU21623XXSP,2013-03-16 19:09:00,
2013-03-16 15:14:00,32.7,12.6,29.79,SW,225,0.0,0.7,43,0.00,,,0.00,WUHU21623XXSP,2013-03-16 19:14:00,
2013-03-16 15:19:00,31.3,13.3,29.79,WNW,292,2.9,7.6,47,0.00,,,0.00,WUHU21623XXSP,2013-03-16 19:19:00,
2013-03-16 15:24:00,31.3,13.8,29.79,NW,315,0.0,7.6,48,0.00,,,0.00,WUHU21623XXSP,2013-03-16 19:24:00,
2013-03-16 15:29:00,30.0,13.7,29.79,NW,315,3.8,5.6,50,0.00,,,0.00,WUHU21623XXSP,2013-03-16 19:29:00,
2013-03-16 15:34:00,30.2,13.8,29.79,NW,315,5.4,5.6,50,0.00,,,0.00,WUHU21623XXSP,2013-03-16 19:34:00,
2013-03-16 15:39:00,29.3,13.4,29.79,NW,315,7.6,7.6,51,0.00,,,0.00,WUHU21623XXSP,2013-03-16 19:39:00,
2013-03-16 15:44:00,29.1,13.3,29.79,NNW,337,6.9,7.6,51,0.00,,,0.00,WUHU21623XXSP,2013-03-16 19:44:00,
2013-03-16 15:49:00,29.5,14.0,29.78,North,0,3.8,6.9,52,0.00,,,0.00,WUHU21623XXSP,2013-03-16 19:49:00,
2013-03-16 15:54:00,29.5,13.2,29.78,WSW,247,1.8,4.5,50,0.00,,,0.00,WUHU21623XXSP,2013-03-16 19:54:00,
2013-03-16 15:59:00,29.3,13.4,29.78,West,270,2.7,3.6,51,0.00,,,0.00,WUHU21623XXSP,2013-03-16 19:59:00,
2013-03-16 16:04:00,28.2,12.8,29.79,NNW,337,4.0,7.4,52,0.00,,,0.00,WUHU21623XXSP,2013-03-16 20:04:00,
2013-03-16 16:09:00,28.2,13.3,29.79,NNW,337,4.5,7.4,53,0.00,,,0.00,WUHU21623XXSP,2013-03-16 20:09:00,
2013-03-16 16:14:00,28.2,13.3,29.79,NNW,337,6.5,6.5,53,0.00,,,0.00,WUHU21623XXSP,2013-03-16 20:14:00,
2013-03-16 16:19:00,28.0,13.5,29.79,NNW,337,3.6,6.5,54,0.00,,,0.00,WUHU21623XXSP,2013-03-16 20:19:00,
2013-03-16 16:24:00,27.7,13.1,29.79,NNW,337,4.0,6.0,54,0.00,,,0.00,WUHU21623XXSP,2013-03-16 20:24:00,
2013-03-16 16:29:00,27.7,13.1,29.79,NW,315,1.1,5.8,54,0.00,,,0.00,WUHU21623XXSP,2013-03-16 20:29:00,
2013-03-16 16:34:00,27.7,13.1,29.79,West,270,4.7,6.3,54,0.00,,,0.00,WUHU21623XXSP,2013-03-16 20:34:00,
2013-03-16 16:39:00,28.0,13.5,29.79,NW,315,6.5,6.5,54,0.00,,,0.00,WUHU21623XXSP,2013-03-16 20:39:00,
2013-03-16 16:44:00,27.7,13.1,29.79,West,270,3.4,6.5,54,0.00,,,0.00,WUHU21623XXSP,2013-03-16 20:44:00,
2013-03-16 16:49:00,27.7,14.0,29.79,NW,315,5.4,6.3,56,0.00,,,0.00,WUHU21623XXSP,2013-03-16 20:49:00,
2013-03-16 16:54:00,27.7,14.0,29.79,WNW,292,5.1,7.6,56,0.00,,,0.00,WUHU21623XXSP,2013-03-16 20:54:00,
2013-03-16 16:59:00,27.7,13.6,29.79,West,270,1.8,7.6,55,0.00,,,0.00,WUHU21623XXSP,2013-03-16 20:59:00,
2013-03-16 17:04:00,27.7,13.6,29.79,NNW,337,4.3,7.8,55,0.00,,,0.00,WUHU21623XXSP,2013-03-16 21:04:00,
2013-03-16 17:09:00,27.7,14.0,29.79,NW,315,5.1,7.8,56,0.00,,,0.00,WUHU21623XXSP,2013-03-16 21:09:00,
2013-03-16 17:14:00,27.5,13.8,29.79,NW,315,4.9,7.6,56,0.00,,,0.00,WUHU21623XXSP,2013-03-16 21:14:00,
2013-03-16 17:19:00,27.3,14.0,29.79,NNW,337,4.7,8.3,57,0.00,,,0.00,WUHU21623XXSP,2013-03-16 21:19:00,
2013-03-16 17:24:00,27.3,14.4,29.79,NNW,337,4.0,8.3,58,0.00,,,0.00,WUHU21623XXSP,2013-03-16 21:24:00,
2013-03-16 17:29:00,27.3,14.0,29.79,NNW,337,5.1,5.1,57,0.00,,,0.00,WUHU21623XXSP,2013-03-16 21:29:00,
2013-03-16 17:34:00,27.0,14.1,29.79,North,0,6.7,7.8,58,0.00,,,0.00,WUHU21623XXSP,2013-03-16 21:34:00,
2013-03-16 17:39:00,27.1,14.3,29.79,North,0,1.1,7.8,58,0.00,,,0.00,WUHU21623XXSP,2013-03-16 21:39:00,
2013-03-16 17:44:00,27.1,14.3,29.79,NNW,337,3.8,5.1,58,0.00,,,0.00,WUHU21623XXSP,2013-03-16 21:44:00,
2013-03-16 17:49:00,27.1,14.7,29.79,NNW,337,5.4,6.7,59,0.00,,,0.00,WUHU21623XXSP,2013-03-16 21:49:00,
2013-03-16 17:54:00,27.0,14.5,29.79,WNW,292,2.2,6.7,59,0.00,,,0.00,WUHU21623XXSP,2013-03-16 21:54:00,
2013-03-16 17:59:00,26.8,14.7,29.79,West,270,2.5,7.2,60,0.00,,,0.00,WUHU21623XXSP,2013-03-16 21:59:00,
2013-03-16 18:04:00,26.4,14.4,29.80,NW,315,0.2,7.2,60,0.00,,,0.00,WUHU21623XXSP,2013-03-16 22:04:00,
2013-03-16 18:09:00,26.6,14.9,29.79,West,270,6.7,6.9,61,0.00,,,0.00,WUHU21623XXSP,2013-03-16 22:09:00,
2013-03-16 18:14:00,26.4,14.7,29.79,NNW,337,6.9,7.4,61,0.00,,,0.00,WUHU21623XXSP,2013-03-16 22:14:00,
2013-03-16 18:19:00,26.4,15.1,29.80,NNW,337,5.1,7.8,62,0.00,,,0.00,WUHU21623XXSP,2013-03-16 22:19:00,
2013-03-16 18:24:00,26.2,15.3,29.80,NW,315,2.7,7.8,63,0.00,,,0.00,WUHU21623XXSP,2013-03-16 22:24:00,
2013-03-16 18:29:00,26.1,15.1,29.80,NW,315,6.0,6.9,63,0.00,,,0.00,WUHU21623XXSP,2013-03-16 22:29:00,
2013-03-16 18:34:00,25.9,14.9,29.80,NW,315,2.2,6.3,63,0.00,,,0.00,WUHU21623XXSP,2013-03-16 22:34:00,
2013-03-16 18:39:00,25.9,14.9,29.81,NW,315,8.1,8.1,63,0.00,,,0.00,WUHU21623XXSP,2013-03-16 22:39:00,
2013-03-16 18:44:00,26.1,14.8,29.81,WNW,292,6.5,8.1,62,0.00,,,0.00,WUHU21623XXSP,2013-03-16 22:44:00,
2013-03-16 18:49:00,25.9,14.6,29.80,NW,315,5.4,6.5,62,0.00,,,0.00,WUHU21623XXSP,2013-03-16 22:49:00,
2013-03-16 18:54:00,25.7,14.1,29.81,WNW,292,3.8,5.4,61,0.00,,,0.00,WUHU21623XXSP,2013-03-16 22:54:00,
2013-03-16 18:59:00,25.7,14.1,29.82,WNW,292,2.2,4.3,61,0.00,,,0.00,WUHU21623XXSP,2013-03-16 22:59:00,
2013-03-16 19:04:00,25.5,14.3,29.82,NW,315,5.8,5.8,62,0.00,,,0.00,WUHU21623XXSP,2013-03-16 23:04:00,
2013-03-16 19:09:00,25.5,14.6,29.82,WNW,292,3.6,5.8,63,0.00,,,0.00,WUHU21623XXSP,2013-03-16 23:09:00,
2013-03-16 19:14:00,25.5,14.3,29.82,WSW,247,7.2,7.2,62,0.00,,,0.00,WUHU21623XXSP,2013-03-16 23:14:00,
2013-03-16 19:19:00,25.5,14.3,29.82,WNW,292,5.6,7.2,62,0.00,,,0.00,WUHU21623XXSP,2013-03-16 23:19:00,
2013-03-16 19:24:00,25.3,13.7,29.83,West,270,2.7,5.6,61,0.00,,,0.00,WUHU21623XXSP,2013-03-16 23:24:00,
2013-03-16 19:29:00,25.3,13.7,29.82,WNW,292,2.2,2.9,61,0.00,,,0.00,WUHU21623XXSP,2013-03-16 23:29:00,
2013-03-16 19:34:00,25.3,13.7,29.82,WNW,292,4.0,4.3,61,0.00,,,0.00,WUHU21623XXSP,2013-03-16 23:34:00,
2013-03-16 19:39:00,25.2,13.6,29.82,NW,315,5.4,5.4,61,0.00,,,0.00,WUHU21623XXSP,2013-03-16 23:39:00,
2013-03-16 19:44:00,25.2,13.2,29.82,West,270,6.3,6.3,60,0.00,,,0.00,WUHU21623XXSP,2013-03-16 23:44:00,
2013-03-16 19:49:00,25.0,13.1,29.83,WNW,292,4.5,7.4,60,0.00,,,0.00,WUHU21623XXSP,2013-03-16 23:49:00,
2013-03-16 19:54:00,24.6,12.7,29.83,NNW,337,7.6,7.6,60,0.00,,,0.00,WUHU21623XXSP,2013-03-16 23:54:00,
2013-03-16 19:59:00,24.4,12.1,29.84,NW,315,8.9,8.9,59,0.00,,,0.00,WUHU21623XXSP,2013-03-16 23:59:00,
2013-03-16 20:04:00,24.1,11.8,29.84,West,270,4.0,8.9,59,0.00,,,0.00,WUHU21623XXSP,2013-03-17 00:04:00,
2013-03-16 20:09:00,23.9,11.6,29.85,NNW,337,5.6,6.7,59,0.00,,,0.00,WUHU21623XXSP,2013-03-17 00:09:00,
2013-03-16 20:14:00,23.7,11.4,29.85,NW,315,6.0,6.0,59,0.00,,,0.00,WUHU21623XXSP,2013-03-17 00:14:00,
2013-03-16 20:19:00,23.5,11.7,29.85,NW,315,0.0,6.0,60,0.00,,,0.00,WUHU21623XXSP,2013-03-17 00:19:00,
2013-03-16 20:24:00,23.4,11.5,29.85,NW,315,7.8,7.8,60,0.00,,,0.00,WUHU21623XXSP,2013-03-17 00:24:00,
2013-03-16 20:29:00,23.2,10.9,29.85,WNW,292,5.1,7.8,59,0.00,,,0.00,WUHU21623XXSP,2013-03-17 00:29:00,
2013-03-16 20:34:00,22.8,10.5,29.85,NW,315,6.0,6.0,59,0.00,,,0.00,WUHU21623XXSP,2013-03-17 00:34:00,
2013-03-16 20:39:00,22.8,10.5,29.86,NW,315,3.4,6.0,59,0.00,,,0.00,WUHU21623XXSP,2013-03-17 00:39:00,
2013-03-16 20:44:00,22.8,11.0,29.86,NNW,337,5.6,5.6,60,0.00,,,0.00,WUHU21623XXSP,2013-03-17 00:44:00,
2013-03-16 20:49:00,22.5,10.6,29.85,North,0,2.9,5.6,60,0.00,,,0.00,WUHU21623XXSP,2013-03-17 00:49:00,
2013-03-16 20:54:00,22.3,10.5,29.85,NW,315,5.1,5.4,60,0.00,,,0.00,WUHU21623XXSP,2013-03-17 00:54:00,
2013-03-16 20:59:00,22.3,10.5,29.86,NW,315,2.7,5.1,60,0.00,,,0.00,WUHU21623XXSP,2013-03-17 00:59:00,
2013-03-16 21:04:00,21.9,10.1,29.86,WNW,292,3.1,3.8,60,0.00,,,0.00,WUHU21623XXSP,2013-03-17 01:04:00,
2013-03-16 21:09:00,21.7,10.0,29.86,NW,315,2.9,3.1,60,0.00,,,0.00,WUHU21623XXSP,2013-03-17 01:09:00,
2013-03-16 21:14:00,21.4,10.0,29.86,NW,315,2.2,2.9,61,0.00,,,0.00,WUHU21623XXSP,2013-03-17 01:14:00,
2013-03-16 21:19:00,21.0,9.7,29.87,NW,315,2.9,2.9,61,0.00,,,0.00,WUHU21623XXSP,2013-03-17 01:19:00,
2013-03-16 21:24:00,20.8,9.5,29.87,NW,315,2.9,2.9,61,0.00,,,0.00,WUHU21623XXSP,2013-03-17 01:24:00,
2013-03-16 21:29:00,20.8,9.8,29.87,NNW,337,3.6,3.6,62,0.00,,,0.00,WUHU21623XXSP,2013-03-17 01:29:00,
2013-03-16 21:34:00,20.5,9.5,29.87,NW,315,1.3,3.6,62,0.00,,,0.00,WUHU21623XXSP,2013-03-17 01:34:00,
2013-03-16 21:39:00,20.3,9.6,29.87,NW,315,0.0,2.5,63,0.00,,,0.00,WUHU21623XXSP,2013-03-17 01:39:00,
2013-03-16 21:44:00,20.1,9.4,29.88,NW,315,2.2,2.5,63,0.00,,,0.00,WUHU21623XXSP,2013-03-17 01:44:00,
2013-03-16 21:49:00,19.9,9.3,29.88,NNW,337,3.6,3.8,63,0.00,,,0.00,WUHU21623XXSP,2013-03-17 01:49:00,
2013-03-16 21:54:00,19.9,9.3,29.88,WNW,292,0.0,3.8,63,0.00,,,0.00,WUHU21623XXSP,2013-03-17 01:54:00,
2013-03-16 21:59:00,19.8,9.1,29.88,WNW,292,0.0,3.4,63,0.00,,,0.00,WUHU21623XXSP,2013-03-17 01:59:00,
2013-03-16 22:04:00,19.6,8.9,29.88,WNW,292,0.0,0.0,63,0.00,,,0.00,WUHU21623XXSP,2013-03-17 02:04:00,
2013-03-16 22:09:00,19.2,8.9,29.89,WNW,292,0.0,0.9,64,0.00,,,0.00,WUHU21623XXSP,2013-03-17 02:09:00,
2013-03-16 22:14:00,19.2,9.2,29.88,WNW,292,4.5,4.5,65,0.00,,,0.00,WUHU21623XXSP,2013-03-17 02:14:00,
2013-03-16 22:19:00,19.4,9.4,29.88,WNW,292,3.4,4.5,65,0.00,,,0.00,WUHU21623XXSP,2013-03-17 02:19:00,
2013-03-16 22:24:00,19.6,9.6,29.88,WNW,292,6.3,6.3,65,0.00,,,0.00,WUHU21623XXSP,2013-03-17 02:24:00,
2013-03-16 22:29:00,19.6,9.6,29.89,WNW,292,0.7,6.3,65,0.00,,,0.00,WUHU21623XXSP,2013-03-17 02:29:00,
2013-03-16 22:34:00,19.6,9.6,29.89,NW,315,4.0,4.7,65,0.00,,,0.00,WUHU21623XXSP,2013-03-17 02:34:00,
2013-03-16 22:39:00,19.2,9.2,29.89,WNW,292,0.4,4.0,65,0.00,,,0.00,WUHU21623XXSP,2013-03-17 02:39:00,
2013-03-16 22:44:00,19.2,9.2,29.89,WNW,292,2.9,2.9,65,0.00,,,0.00,WUHU21623XXSP,2013-03-17 02:44:00,
2013-03-16 22:49:00,19.0,9.8,29.89,NNW,337,6.3,6.3,67,0.00,,,0.00,WUHU21623XXSP,2013-03-17 02:49:00,
2013-03-16 22:54:00,19.2,9.6,29.90,NW,315,5.1,6.3,66,0.00,,,0.00,WUHU21623XXSP,2013-03-17 02:54:00,
2013-03-16 22:59:00,19.0,9.4,29.90,NW,315,2.2,5.1,66,0.00,,,0.00,WUHU21623XXSP,2013-03-17 02:59:00,
2013-03-16 23:04:00,18.9,9.6,29.90,NNW,337,3.6,4.3,67,0.00,,,0.00,WUHU21623XXSP,2013-03-17 03:04:00,
2013-03-16 23:09:00,18.9,9.6,29.90,NW,315,3.6,7.4,67,0.00,,,0.00,WUHU21623XXSP,2013-03-17 03:09:00,
2013-03-16 23:14:00,18.5,9.3,29.90,NW,315,5.1,7.4,67,0.00,,,0.00,WUHU21623XXSP,2013-03-17 03:14:00,
2013-03-16 23:19:00,18.3,9.5,29.91,NW,315,2.2,5.1,68,0.00,,,0.00,WUHU21623XXSP,2013-03-17 03:19:00,
2013-03-16 23:24:00,18.1,9.3,29.90,NW,315,1.1,3.1,68,0.00,,,0.00,WUHU21623XXSP,2013-03-17 03:24:00,
2013-03-16 23:29:00,18.1,9.6,29.91,WNW,292,4.3,4.3,69,0.00,,,0.00,WUHU21623XXSP,2013-03-17 03:29:00,
2013-03-16 23:34:00,17.8,9.0,29.90,NW,315,0.0,4.3,68,0.00,,,0.00,WUHU21623XXSP,2013-03-17 03:34:00,
2013-03-16 23:39:00,17.8,9.3,29.90,NW,315,0.7,2.9,69,0.00,,,0.00,WUHU21623XXSP,2013-03-17 03:39:00,
2013-03-16 23:44:00,17.4,9.0,29.90,NW,315,2.0,2.9,69,0.00,,,0.00,WUHU21623XXSP,2013-03-17 03:44:00,
2013-03-16 23:49:00,17.2,8.8,29.90,NW,315,2.9,2.9,69,0.00,,,0.00,WUHU21623XXSP,2013-03-17 03:49:00,
2013-03-16 23:54:00,16.9,8.4,29.91,NW,315,2.9,2.9,69,0.00,,,0.00,WUHU21623XXSP,2013-03-17 03:54:00,
2013-03-16 23:59:00,16.7,8.6,29.91,WNW,292,1.1,2.9,70,0.00,,,0.00,WUHU21623XXSP,2013-03-17 03:59:00,